DW3277 Weather Reports


time (UTC)temp
C
wind
direction
speed
KPH
gust
KPH
rain 1hr
cm
rain 24hr
cm
rain mn
cm
humidity
%
barometer
mb
20220627203029 33 198 1.6 0.0 0.00 0.00 0.00 27 1011.3
20220627201530 32 198 0.0 0.0 0.00 0.00 0.00 28 1011.6
20220627200023 32 198 0.0 0.0 0.00 0.00 0.00 33 1011.9
20220627194519 31 198 1.6 0.0 0.00 0.00 0.00 34 1012.1
20220627193015 31 198 1.6 0.0 0.00 0.00 0.00 31 1012.5
20220627191515 30 198 1.6 0.0 0.00 0.00 0.00 31 1012.9
20220627190009 30 198 0.0 0.0 0.00 0.00 0.00 31 1013.1
20220627184506 29 198 0.0 0.0 0.00 0.00 0.00 34 1013.3
20220627183001 28 198 1.6 0.0 0.00 0.00 0.00 34 1013.6
20220627181557 27 198 0.0 0.0 0.00 0.00 0.00 38 1013.9
20220627180057 27 198 0.0 0.0 0.00 0.00 0.00 39 1014.2
20220627174603 26 198 0.0 0.0 0.00 0.00 0.00 39 1014.4
20220627173047 26 198 0.0 0.0 0.00 0.00 0.00 39 1014.6
20220627171542 25 198 0.0 0.0 0.00 0.00 0.00 42 1014.9
20220627170038 24 198 1.6 0.0 0.00 0.00 0.00 43 1015.1
20220627164536 24 198 0.0 0.0 0.00 0.00 0.00 42 1015.4
20220627163031 22 198 1.6 0.0 0.00 0.00 0.00 48 1015.7
20220627161528 22 198 0.0 0.0 0.00 0.00 0.00 50 1016.1
20220627160023 21 198 0.0 0.0 0.00 0.00 0.00 59 1016.3
20220627154520 20 198 0.0 0.0 0.00 0.00 0.00 60 1016.6
20220627153025 19 198 0.0 0.0 0.00 0.00 0.00 63 1016.8
20220627151512 17 198 0.0 0.0 0.00 0.00 0.00 63 1016.9
20220627150017 16 198 1.6 0.0 0.00 0.00 0.00 69 1017.1
20220627144518 16 198 0.0 0.0 0.00 0.00 0.00 70 1017.3
20220627143006 15 198 1.6 0.0 0.00 0.00 0.00 73 1017.4
20220627141505 15 198 0.0 0.0 0.00 0.00 0.00 73 1017.5
20220627140004 15 198 0.0 0.0 0.00 0.00 0.00 75 1017.6
20220627134507 14 198 0.0 0.0 0.00 0.00 0.00 78 1017.7
20220627133002 14 198 0.0 0.0 0.00 0.00 0.00 79 1017.7
20220627131501 13 198 0.0 0.0 0.00 0.00 0.00 83 1017.7
20220627130100 12 198 0.0 0.0 0.00 0.00 0.00 84 1017.6
20220627124600 12 198 0.0 0.0 0.00 0.00 0.00 84 1017.6
20220627123057 12 198 0.0 0.0 0.00 0.00 0.00 83 1017.4
20220627121601 12 198 0.0 0.0 0.00 0.00 0.00 84 1017.4
20220627120054 12 198 0.0 0.0 0.00 0.00 0.00 83 1017.4
20220627114553 12 198 0.0 0.0 0.00 0.00 0.00 82 1017.3
20220627113106 12 198 0.0 0.0 0.00 0.00 0.00 81 1017.2
20220627111551 13 198 0.0 0.0 0.00 0.00 0.00 81 1017.1
20220627110049 13 198 0.0 0.0 0.00 0.00 0.00 82 1017.0
20220627104547 13 198 0.0 0.0 0.00 0.00 0.00 81 1017.0
20220627103044 13 198 0.0 0.0 0.00 0.00 0.00 82 1016.9
20220627101546 13 198 0.0 0.0 0.00 0.00 0.00 82 1016.7
20220627100041 13 198 0.0 0.0 0.00 0.00 0.00 81 1016.7
20220627094538 14 198 0.0 0.0 0.00 0.00 0.00 81 1016.6
20220627093042 14 198 0.0 0.0 0.00 0.00 0.00 82 1016.5
20220627091535 15 198 0.0 0.0 0.00 0.00 0.00 81 1016.5
20220627090034 15 198 0.0 0.0 0.00 0.00 0.00 82 1016.4
20220627084531 15 198 0.0 0.0 0.00 0.00 0.00 81 1016.3
20220627083028 15 198 0.0 0.0 0.00 0.00 0.00 79 1016.2
20220627081526 16 198 0.0 0.0 0.00 0.00 0.00 79 1016.2
20220627080024 16 198 0.0 0.0 0.00 0.00 0.00 79 1016.1
20220627074522 16 198 0.0 0.0 0.00 0.00 0.00 78 1015.9
20220627073019 16 198 0.0 0.0 0.00 0.00 0.00 78 1015.9
20220627071518 16 198 0.0 0.0 0.00 0.00 0.00 76 1015.8
20220627070016 17 198 0.0 0.0 0.00 0.00 0.00 78 1015.7
20220627064514 17 198 0.0 0.0 0.00 0.00 0.00 77 1015.7
20220627063013 17 198 0.0 0.0 0.00 0.00 0.00 77 1015.7
20220627061512 17 198 0.0 0.0 0.00 0.00 0.00 76 1015.7
20220627060016 18 198 0.0 0.0 0.00 0.00 0.00 75 1015.6
20220627054516 18 198 0.0 0.0 0.00 0.00 0.00 74 1015.5
20220627053010 18 198 0.0 0.0 0.00 0.00 0.00 73 1015.3
20220627051510 19 198 0.0 0.0 0.00 0.00 0.00 71 1015.3
20220627050010 20 198 0.0 0.0 0.00 0.00 0.00 70 1015.2
20220627044512 20 198 0.0 0.0 0.00 0.00 0.00 68 1015.1
20220627043009 21 198 0.0 0.0 0.00 0.00 0.00 66 1014.9
20220627041512 21 198 0.0 0.0 0.00 0.00 0.00 64 1014.7
20220627040008 22 198 0.0 0.0 0.00 0.00 0.00 61 1014.6
20220627034508 22 198 0.0 0.0 0.00 0.00 0.00 58 1014.4
20220627033007 23 198 0.0 0.0 0.00 0.00 0.00 55 1014.2
20220627031507 24 198 0.0 0.0 0.00 0.00 0.00 51 1014.1
20220627030016 25 198 0.0 0.0 0.00 0.00 0.00 46 1014.0
20220627024506 27 198 0.0 0.0 0.00 0.00 0.00 43 1013.9
20220627023005 28 198 0.0 0.0 0.00 0.00 0.00 40 1014.0
20220627021505 30 198 0.0 0.0 0.00 0.00 0.00 40 1013.9
20220627020004 32 198 0.0 0.0 0.00 0.00 0.00 36 1013.9
20220627014504 32 198 0.0 0.0 0.00 0.00 0.00 37 1013.9
20220627013006 32 198 0.0 0.0 0.00 0.00 0.00 36 1014.0
20220627011502 31 198 0.0 0.0 0.00 0.00 0.00 36 1014.2
20220627010002 31 198 0.0 0.0 0.00 0.00 0.00 35 1014.1
20220627004602 32 198 0.0 0.0 0.00 0.00 0.00 34 1014.2
20220627003102 32 198 0.0 0.0 0.00 0.00 0.00 32 1014.3
20220627001557 32 198 0.0 0.0 0.00 0.00 0.00 31 1014.5
20220627000055 32 198 0.0 0.0 0.00 0.00 0.00 27 1014.6
20220626234554 33 198 0.0 0.0 0.00 0.00 0.00 25 1014.7
20220626233052 33 198 0.0 0.0 0.00 0.00 0.00 24 1014.9
20220626231548 33 198 0.0 0.0 0.00 0.00 0.00 22 1015.1
20220626230048 33 198 1.6 0.0 0.00 0.00 0.00 25 1015.2
20220626224545 32 198 1.6 0.0 0.00 0.00 0.00 23 1015.4
20220626223042 32 198 1.6 0.0 0.00 0.00 0.00 26 1015.5
20220626221542 32 198 1.6 0.0 0.00 0.00 0.00 26 1015.6
20220626220037 32 198 0.0 0.0 0.00 0.00 0.00 29 1015.7
20220626214535 31 198 0.0 0.0 0.00 0.00 0.00 28 1015.9
20220626213034 32 198 1.6 0.0 0.00 0.00 0.00 27 1016.2
20220626211535 31 198 0.0 0.0 0.00 0.00 0.00 23 1016.2
20220626210027 31 198 0.0 0.0 0.00 0.00 0.00 27 1016.5
20220626204524 30 198 1.6 0.0 0.00 0.00 0.00 26 1016.6